LAN152 SCEL-SCSE

Flight info

Callsign LAN152
Flight time 0h 43m
Altitude 30000
Route DONTI5B DONTI UQ802 KUGAP KUGAP5
Aircraft A320/M-SDE3FGHIRWY/LB1

Departure

Time 2026-04-22 01:02
Airport Comodoro Arturo Merino Benítez International Airport (SCEL)

Arrival

Time 2026-04-22 01:46
Airport La Florida Airport (SCSE)
Time Latitude Longitude Altitude Speed Heading
2026-04-22 00:40 -33.39602 -70.79453 1565 ft 0 kts 176°
2026-04-22 00:48 -33.39590 -70.79454 1564 ft 3 kts 176°
2026-04-22 00:48 -33.39573 -70.79455 1564 ft 3 kts 176°
2026-04-22 00:49 -33.39555 -70.79457 1564 ft 3 kts 176°
2026-04-22 00:49 -33.39538 -70.79458 1564 ft 2 kts 179°
2026-04-22 00:49 -33.39522 -70.79462 1564 ft 2 kts 122°
2026-04-22 00:49 -33.39517 -70.79470 1564 ft 0 kts 90°
2026-04-22 00:52 -33.39517 -70.79469 1564 ft 0 kts 89°
2026-04-22 00:53 -33.39517 -70.79465 1564 ft 1 kts 87°
2026-04-22 00:53 -33.39517 -70.79457 1564 ft 1 kts 86°
2026-04-22 00:53 -33.39515 -70.79445 1564 ft 2 kts 80°
2026-04-22 00:53 -33.39512 -70.79430 1564 ft 2 kts 79°
2026-04-22 00:54 -33.39509 -70.79409 1564 ft 3 kts 81°
2026-04-22 00:54 -33.39508 -70.79382 1564 ft 4 kts 88°
2026-04-22 00:54 -33.39507 -70.79348 1564 ft 4 kts 87°
2026-04-22 00:54 -33.39505 -70.79307 1564 ft 5 kts 87°
2026-04-22 00:55 -33.39503 -70.79260 1564 ft 6 kts 86°
2026-04-22 00:55 -33.39501 -70.79206 1564 ft 7 kts 88°
2026-04-22 00:55 -33.39496 -70.79078 1564 ft 8 kts 88°
2026-04-22 00:56 -33.39494 -70.79004 1564 ft 9 kts 88°
2026-04-22 00:56 -33.39490 -70.78924 1564 ft 10 kts 82°
2026-04-22 00:56 -33.39448 -70.78866 1564 ft 10 kts 28°
2026-04-22 00:56 -33.39387 -70.78826 1564 ft 10 kts 30°
2026-04-22 00:57 -33.39321 -70.78794 1564 ft 10 kts
2026-04-22 00:57 -33.39249 -70.78799 1564 ft 11 kts 358°
2026-04-22 00:57 -33.39176 -70.78802 1564 ft 11 kts 357°
2026-04-22 00:57 -33.39100 -70.78806 1564 ft 11 kts 357°
2026-04-22 00:58 -33.39020 -70.78811 1564 ft 12 kts 357°
2026-04-22 00:58 -33.38932 -70.78816 1564 ft 13 kts 357°
2026-04-22 00:58 -33.38835 -70.78821 1564 ft 15 kts 357°
2026-04-22 00:58 -33.38725 -70.78827 1564 ft 17 kts 358°
2026-04-22 00:59 -33.38601 -70.78833 1564 ft 19 kts 358°
2026-04-22 00:59 -33.38463 -70.78839 1564 ft 21 kts 357°
2026-04-22 00:59 -33.38313 -70.78848 1564 ft 22 kts 357°
2026-04-22 00:59 -33.38150 -70.78857 1564 ft 24 kts 357°
2026-04-22 01:00 -33.37975 -70.78866 1564 ft 24 kts 358°
2026-04-22 01:00 -33.37839 -70.78873 1564 ft 18 kts 357°
2026-04-22 01:00 -33.37735 -70.78878 1564 ft 13 kts 357°
2026-04-22 01:00 -33.37642 -70.78866 1564 ft 14 kts 40°
2026-04-22 01:01 -33.37621 -70.78749 1564 ft 15 kts 91°
2026-04-22 01:01 -33.37657 -70.78673 1565 ft 10 kts 169°
2026-04-22 01:01 -33.37722 -70.78665 1565 ft 0 kts 178°
2026-04-22 01:01 -33.37818 -70.78659 1564 ft 44 kts 177°
2026-04-22 01:02 -33.38354 -70.78631 1564 ft 106 kts 177°
2026-04-22 01:02 -33.39259 -70.78581 1564 ft 152 kts 177°
2026-04-22 01:02 -33.40382 -70.78514 1927 ft 164 kts 178°
2026-04-22 01:02 -33.41549 -70.78466 2444 ft 172 kts 177°
2026-04-22 01:03 -33.42827 -70.78407 2763 ft 195 kts 178°
2026-04-22 01:03 -33.44265 -70.78325 2987 ft 220 kts 177°
2026-04-22 01:03 -33.45878 -70.78223 3353 ft 244 kts 176°
2026-04-22 01:03 -33.47643 -70.78109 3932 ft 260 kts 176°
2026-04-22 01:04 -33.49459 -70.78356 4694 ft 271 kts 202°
2026-04-22 01:04 -33.50929 -70.79768 5475 ft 278 kts 238°
2026-04-22 01:04 -33.51511 -70.81949 6297 ft 278 kts 273°
2026-04-22 01:04 -33.51177 -70.84177 7135 ft 275 kts 291°
2026-04-22 01:05 -33.50489 -70.86319 8031 ft 275 kts 296°
2026-04-22 01:05 -33.49753 -70.88439 8747 ft 278 kts 294°
2026-04-22 01:05 -33.49076 -70.90599 8960 ft 276 kts 292°
2026-04-22 01:05 -33.48488 -70.92785 8998 ft 276 kts 289°
2026-04-22 01:06 -33.47954 -70.94996 9006 ft 275 kts 292°
2026-04-22 01:06 -33.47099 -70.97018 9010 ft 272 kts 308°
2026-04-22 01:06 -33.45804 -70.98660 9105 ft 275 kts 324°
2026-04-22 01:06 -33.44130 -70.99776 9962 ft 275 kts 339°
2026-04-22 01:07 -33.42292 -71.00530 10473 ft 290 kts 341°
2026-04-22 01:07 -33.40301 -71.01322 10667 ft 313 kts 341°
2026-04-22 01:07 -33.38182 -71.02156 11139 ft 324 kts 341°
2026-04-22 01:07 -33.36025 -71.02999 11827 ft 327 kts 340°
2026-04-22 01:08 -33.33851 -71.03850 12489 ft 330 kts 340°
2026-04-22 01:08 -33.31660 -71.04709 13201 ft 333 kts 340°
2026-04-22 01:08 -33.29444 -71.05575 13922 ft 336 kts 339°
2026-04-22 01:08 -33.27212 -71.06448 14555 ft 339 kts 339°
2026-04-22 01:09 -33.24964 -71.07329 15141 ft 341 kts 339°
2026-04-22 01:09 -33.22694 -71.08219 15713 ft 345 kts 339°
2026-04-22 01:09 -33.20408 -71.09115 16288 ft 348 kts 339°
2026-04-22 01:09 -33.18096 -71.10018 16870 ft 351 kts 338°
2026-04-22 01:10 -33.15764 -71.10930 17465 ft 354 kts 338°
2026-04-22 01:10 -33.13410 -71.11849 18000 ft 358 kts 338°
2026-04-22 01:10 -33.11066 -71.12760 18609 ft 361 kts 338°
2026-04-22 01:10 -33.08639 -71.13705 19175 ft 363 kts 338°
2026-04-22 01:11 -33.06259 -71.14629 19714 ft 364 kts 337°
2026-04-22 01:11 -33.03838 -71.15567 20289 ft 368 kts 337°
2026-04-22 01:11 -33.01398 -71.16509 20857 ft 370 kts 337°
2026-04-22 01:11 -32.98942 -71.17458 21427 ft 372 kts 337°
2026-04-22 01:12 -32.96471 -71.18403 21924 ft 376 kts 339°
2026-04-22 01:12 -32.93864 -71.18984 22458 ft 386 kts 349°
2026-04-22 01:12 -32.91153 -71.19086 22991 ft 391 kts 352°
2026-04-22 01:12 -32.89348 -71.19120 23341 ft 393 kts 352°
2026-04-22 01:13 -32.86598 -71.19171 23827 ft 395 kts 352°
2026-04-22 01:13 -32.83844 -71.19225 24248 ft 397 kts 352°
2026-04-22 01:13 -32.81073 -71.19280 24667 ft 399 kts 352°
2026-04-22 01:13 -32.78287 -71.19332 25092 ft 401 kts 352°
2026-04-22 01:14 -32.75496 -71.19383 25480 ft 402 kts 352°
2026-04-22 01:14 -32.72691 -71.19433 25879 ft 404 kts 352°
2026-04-22 01:14 -32.69880 -71.19483 26271 ft 405 kts 352°
2026-04-22 01:14 -32.67051 -71.19535 26659 ft 407 kts 351°
2026-04-22 01:15 -32.64210 -71.19589 27063 ft 408 kts 351°
2026-04-22 01:15 -32.61367 -71.19644 27459 ft 410 kts 351°
2026-04-22 01:15 -32.58500 -71.19697 27858 ft 412 kts 351°
2026-04-22 01:15 -32.55632 -71.19746 28244 ft 413 kts 351°
2026-04-22 01:16 -32.52755 -71.19796 28632 ft 415 kts 351°
2026-04-22 01:16 -32.50761 -71.19828 28883 ft 417 kts 351°
2026-04-22 01:16 -32.47853 -71.19872 29243 ft 418 kts 351°
2026-04-22 01:16 -32.45848 -71.19907 29482 ft 419 kts 351°
2026-04-22 01:17 -32.42930 -71.19959 29898 ft 419 kts 351°
2026-04-22 01:17 -32.40051 -71.20012 30146 ft 418 kts 351°
2026-04-22 01:17 -32.34323 -71.20110 30169 ft 408 kts 351°
2026-04-22 01:18 -32.28655 -71.20216 30182 ft 406 kts 351°
2026-04-22 01:18 -32.22992 -71.20325 30173 ft 407 kts 351°
2026-04-22 01:19 -32.17323 -71.20431 30173 ft 408 kts 351°
2026-04-22 01:19 -32.11644 -71.20536 30176 ft 408 kts 351°
2026-04-22 01:20 -32.05961 -71.20642 30179 ft 409 kts 351°
2026-04-22 01:20 -32.00274 -71.20741 30177 ft 408 kts 351°
2026-04-22 01:21 -31.94591 -71.20835 30160 ft 409 kts 351°
2026-04-22 01:21 -31.88903 -71.20937 30166 ft 409 kts 351°
2026-04-22 01:22 -31.83212 -71.21042 30173 ft 409 kts 351°
2026-04-22 01:22 -31.77517 -71.21138 30172 ft 410 kts 352°
2026-04-22 01:23 -31.71785 -71.20910 30144 ft 413 kts 354°
2026-04-22 01:23 -31.68945 -71.20695 29877 ft 413 kts 355°
2026-04-22 01:23 -31.66082 -71.20463 29594 ft 412 kts 355°
2026-04-22 01:24 -31.63231 -71.20243 29302 ft 410 kts 355°
2026-04-22 01:24 -31.60382 -71.20041 29042 ft 409 kts 354°
2026-04-22 01:24 -31.57550 -71.19862 28772 ft 407 kts 354°
2026-04-22 01:24 -31.54726 -71.19695 28506 ft 406 kts 354°
2026-04-22 01:25 -31.51913 -71.19532 28239 ft 404 kts 354°
2026-04-22 01:25 -31.49107 -71.19368 27977 ft 403 kts 354°
2026-04-22 01:25 -31.46306 -71.19203 27682 ft 402 kts 355°
2026-04-22 01:25 -31.43519 -71.19038 27427 ft 400 kts 355°
2026-04-22 01:26 -31.40749 -71.18873 27106 ft 396 kts 355°
2026-04-22 01:26 -31.38012 -71.18705 26603 ft 392 kts 355°
2026-04-22 01:26 -31.35296 -71.18539 26104 ft 390 kts 355°
2026-04-22 01:26 -31.32591 -71.18376 25608 ft 388 kts 355°
2026-04-22 01:27 -31.29904 -71.18215 25109 ft 385 kts 355°
2026-04-22 01:27 -31.27230 -71.18055 24642 ft 384 kts 355°
2026-04-22 01:27 -31.24568 -71.17895 24178 ft 384 kts 355°
2026-04-22 01:27 -31.21900 -71.17735 23712 ft 383 kts 356°
2026-04-22 01:28 -31.19268 -71.17575 23206 ft 382 kts 356°
2026-04-22 01:28 -31.16633 -71.17414 22775 ft 379 kts 356°
2026-04-22 01:28 -31.14005 -71.17252 22333 ft 376 kts 356°
2026-04-22 01:28 -31.11393 -71.17094 21884 ft 373 kts 356°
2026-04-22 01:29 -31.08806 -71.16939 21437 ft 370 kts 356°
2026-04-22 01:29 -31.06241 -71.16786 20997 ft 367 kts 356°
2026-04-22 01:29 -31.03702 -71.16635 20543 ft 365 kts 357°
2026-04-22 01:29 -31.01174 -71.16486 20090 ft 362 kts 357°
2026-04-22 01:30 -30.98665 -71.16338 19620 ft 360 kts 357°
2026-04-22 01:30 -30.96173 -71.16193 19156 ft 358 kts 358°
2026-04-22 01:30 -30.93682 -71.16047 18699 ft 359 kts 358°
2026-04-22 01:30 -30.91187 -71.15896 18263 ft 359 kts 358°
2026-04-22 01:31 -30.88702 -71.15745 17802 ft 356 kts 358°
2026-04-22 01:31 -30.86240 -71.15595 17372 ft 353 kts 359°
2026-04-22 01:31 -30.83793 -71.15455 16943 ft 350 kts 358°
2026-04-22 01:31 -30.81366 -71.15321 16514 ft 347 kts 359°
2026-04-22 01:32 -30.78965 -71.15178 16103 ft 345 kts 359°
2026-04-22 01:32 -30.76579 -71.15029 15668 ft 342 kts 359°
2026-04-22 01:32 -30.74211 -71.14880 15263 ft 340 kts 360°
2026-04-22 01:32 -30.71859 -71.14734 14854 ft 337 kts 360°
2026-04-22 01:33 -30.69524 -71.14593 14451 ft 334 kts 360°
2026-04-22 01:33 -30.67207 -71.14453 14042 ft 331 kts
2026-04-22 01:33 -30.64941 -71.14316 13609 ft 328 kts
2026-04-22 01:33 -30.62668 -71.14179 13208 ft 326 kts
2026-04-22 01:34 -30.60412 -71.14047 12810 ft 324 kts
2026-04-22 01:34 -30.58166 -71.13916 12424 ft 322 kts
2026-04-22 01:34 -30.55932 -71.13788 12028 ft 320 kts
2026-04-22 01:34 -30.53718 -71.13660 11639 ft 318 kts
2026-04-22 01:35 -30.51512 -71.13532 11261 ft 317 kts
2026-04-22 01:35 -30.49317 -71.13404 10873 ft 314 kts
2026-04-22 01:35 -30.47145 -71.13273 10534 ft 309 kts
2026-04-22 01:35 -30.45074 -71.13147 10416 ft 288 kts
2026-04-22 01:36 -30.43139 -71.13032 10089 ft 278 kts
2026-04-22 01:36 -30.41247 -71.12922 9889 ft 272 kts
2026-04-22 01:36 -30.39352 -71.12809 9755 ft 273 kts
2026-04-22 01:36 -30.37455 -71.12694 9625 ft 273 kts
2026-04-22 01:37 -30.35557 -71.12578 9395 ft 272 kts
2026-04-22 01:37 -30.33674 -71.12464 9112 ft 271 kts
2026-04-22 01:37 -30.31796 -71.12354 8819 ft 270 kts
2026-04-22 01:37 -30.29926 -71.12245 8526 ft 269 kts
2026-04-22 01:38 -30.28049 -71.12133 8233 ft 269 kts
2026-04-22 01:38 -30.26183 -71.12020 7938 ft 268 kts
2026-04-22 01:38 -30.24321 -71.11908 7647 ft 268 kts
2026-04-22 01:38 -30.22464 -71.11778 7350 ft 267 kts
2026-04-22 01:39 -30.20615 -71.11623 7062 ft 266 kts
2026-04-22 01:39 -30.18773 -71.11461 6768 ft 263 kts
2026-04-22 01:39 -30.16981 -71.11302 6485 ft 254 kts
2026-04-22 01:39 -30.15249 -71.11150 6204 ft 245 kts
2026-04-22 01:40 -30.13578 -71.11006 5939 ft 237 kts
2026-04-22 01:40 -30.11974 -71.10668 5679 ft 233 kts 19°
2026-04-22 01:40 -30.10534 -71.09829 5422 ft 231 kts 31°
2026-04-22 01:40 -30.09172 -71.08867 5172 ft 228 kts 31°
2026-04-22 01:41 -30.07816 -71.07919 4914 ft 226 kts 31°
2026-04-22 01:41 -30.06472 -71.06983 4643 ft 225 kts 31°
2026-04-22 01:41 -30.05144 -71.06058 4371 ft 222 kts 31°
2026-04-22 01:41 -30.03830 -71.05184 4130 ft 220 kts 25°
2026-04-22 01:42 -30.02377 -71.04673 3849 ft 218 kts
2026-04-22 01:42 -30.00870 -71.04662 3579 ft 216 kts 352°
2026-04-22 01:42 -29.99462 -71.05114 3340 ft 203 kts 336°
2026-04-22 01:42 -29.98278 -71.05903 3057 ft 191 kts 322°
2026-04-22 01:43 -29.97377 -71.06920 2823 ft 169 kts 309°
2026-04-22 01:43 -29.96772 -71.07999 2602 ft 154 kts 296°
2026-04-22 01:43 -29.96308 -71.09088 2402 ft 149 kts 296°
2026-04-22 01:43 -29.95852 -71.10146 2199 ft 146 kts 296°
2026-04-22 01:44 -29.95401 -71.11193 2019 ft 145 kts 296°
2026-04-22 01:44 -29.94954 -71.12230 1822 ft 144 kts 296°
2026-04-22 01:44 -29.94510 -71.13262 1633 ft 143 kts 296°
2026-04-22 01:44 -29.94069 -71.14286 1433 ft 142 kts 296°
2026-04-22 01:45 -29.93628 -71.15313 1253 ft 143 kts 296°
2026-04-22 01:45 -29.93187 -71.16340 1059 ft 143 kts 295°
2026-04-22 01:45 -29.92748 -71.17373 848 ft 144 kts 296°
2026-04-22 01:45 -29.92314 -71.18398 657 ft 144 kts 295°
2026-04-22 01:46 -29.91869 -71.19430 486 ft 138 kts 296°
2026-04-22 01:46 -29.91517 -71.20247 480 ft 73 kts 296°
2026-04-22 01:46 -29.91410 -71.20495 479 ft 16 kts 296°
2026-04-22 01:46 -29.91358 -71.20617 482 ft 18 kts 296°
2026-04-22 01:47 -29.91300 -71.20757 479 ft 20 kts 291°
2026-04-22 01:47 -29.91274 -71.20870 480 ft 11 kts 331°
2026-04-22 01:47 -29.91273 -71.20818 478 ft 9 kts 118°
2026-04-22 01:47 -29.91306 -71.20742 478 ft 12 kts 116°
2026-04-22 01:48 -29.91344 -71.20654 482 ft 13 kts 116°
2026-04-22 01:48 -29.91386 -71.20554 480 ft 15 kts 116°
2026-04-22 01:48 -29.91435 -71.20438 477 ft 17 kts 116°
2026-04-22 01:48 -29.91491 -71.20308 480 ft 16 kts 117°
2026-04-22 01:49 -29.91570 -71.20286 473 ft 12 kts 205°
2026-04-22 01:49 -29.91635 -71.20322 480 ft 7 kts 206°
2026-04-22 01:49 -29.91663 -71.20338 480 ft 0 kts 206°